This is the latest recevied weather packets stored in our database for station/object AC2VK-1. If no packets are shown the sender has not sent any weather packets the latest 10 day(s).
| Time | Temp. | Humidity | Pressure | Rain* | Wind** | Luminosity | Snow |
|---|---|---|---|---|---|---|---|
| 1777607970 | 11.67° C | 68% | 1017.1 hPa | 0 mm | - | - | - |
| 1777607370 | 11.67° C | 66% | 1017 hPa | 0 mm | - | - | - |
| 1777606770 | 12.22° C | 66% | 1017 hPa | 0 mm | - | - | - |
| 1777606170 | 12.22° C | 66% | 1016.9 hPa | 0 mm | - | - | - |
| 1777605570 | 12.22° C | 65% | 1017 hPa | 0 mm | - | - | - |
| 1777604970 | 12.22° C | 66% | 1016.9 hPa | 0 mm | - | - | - |
| 1777604370 | 12.78° C | 64% | 1016.9 hPa | 0 mm | - | - | - |
| 1777603770 | 12.78° C | 63% | 1017 hPa | 0 mm | - | - | - |
| 1777603170 | 12.78° C | 63% | 1016.8 hPa | 0 mm | - | - | - |
| 1777602570 | 12.78° C | 64% | 1016.9 hPa | 0 mm | - | - | - |
| 1777601970 | 12.78° C | 63% | 1016.7 hPa | 0 mm | - | - | - |
| 1777601370 | 13.33° C | 62% | 1016.4 hPa | 0 mm | - | - | - |
| 1777600770 | 13.33° C | 60% | 1016.4 hPa | 0 mm | - | - | - |
| 1777600170 | 13.33° C | 60% | 1016.2 hPa | 0 mm | - | - | - |
| 1777599570 | 13.33° C | 59% | 1016 hPa | 0 mm | - | - | - |
| 1777598970 | 13.33° C | 58% | 1015.9 hPa | 0 mm | - | - | - |
| 1777598370 | 14.44° C | 54% | 1015.8 hPa | 0 mm | - | - | - |
| 1777597770 | 14.44° C | 51% | 1015.8 hPa | 0 mm | - | - | - |
| 1777597170 | 15° C | 50% | 1015.7 hPa | 0 mm | - | - | - |
| 1777596570 | 15° C | 49% | 1015.6 hPa | 0 mm | - | - | - |
| 1777595970 | 15.56° C | 48% | 1015.5 hPa | 0 mm | - | - | - |
| 1777595370 | 15.56° C | 48% | 1015.3 hPa | 0 mm | - | - | - |
| 1777594770 | 16.11° C | 48% | 1015.2 hPa | 0 mm | - | - | - |
| 1777594170 | 16.67° C | 48% | 1015.2 hPa | 0 mm | - | - | - |
| 1777593570 | 16.67° C | 48% | 1015.1 hPa | 0 mm | - | - | - |
* Rain latest hour (hover to see other rain measurements)
** Current wind speed in m/s (hover to see current wind gust speed)